H1 CPF 2 COD 2024 4 2 1 93 1 galileo215 NONE
H2 1707901 7215 43055 2024 4 1 23 59 42 2024 4 6 23 59 42 900 1 1 0 0 0 1
H5 0.5555
H9
10 0 60406  26982.000000  0   13867470.914   9762480.536  24252584.799
10 0 60406  27882.000000  0   12985623.513  11750287.853  23856121.125
10 0 60406  28782.000000  0   12259835.139  13747947.814  23162796.602
10 0 60406  29682.000000  0   11694881.580  15718346.305  22181241.993
10 0 60406  30582.000000  0   11289349.085  17624371.619  20923675.332
10 0 60406  31482.000000  0   11035719.284  19430025.373  19405749.739
10 0 60406  32382.000000  0   10920647.792  21101500.465  17646358.417
10 0 60406  33282.000000  0   10925427.650  22608192.390  15667399.242
10 0 60406  34182.000000  0   11026622.993  23923612.292  13493501.864
10 0 60406  35082.000000  0   11196852.956  25026173.212  11151720.703
10 0 60406  35982.000000  0   11405701.132  25899824.948   8671197.689
10 0 60406  36882.000000  0   11620721.915  26534517.717   6082798.949
10 0 60406  37782.000000  0   11808512.058  26926480.136   3418730.033
10 0 60406  38682.000000  0   11935813.695  27078302.922    712134.488
10 0 60406  39582.000000  0   11970614.091  26998825.766  -2003319.125
10 0 60406  40482.000000  0   11883207.526  26702831.051  -4693856.600
10 0 60406  41382.000000  0   11647185.893  26210554.133  -7326018.531
10 0 60406  42282.000000  0   11240326.845  25547025.653  -9867076.572
10 0 60406  43182.000000  0   10645351.600  24741266.626 -12285440.291
10 0 60406  44082.000000  0    9850528.570  23825361.619 -14551049.541
10 0 60406  44982.000000  0    8850103.863  22833439.168 -16635747.488
10 0 60406  45882.000000  0    7644545.151  21800591.413 -18513629.692
10 0 60406  46782.000000  0    6240591.216  20761766.835 -20161364.959
10 0 60406  47682.000000  0    4651105.600  19750670.758 -21558484.073
10 0 60406  48582.000000  0    2894738.881  18798708.006 -22687632.891
10 0 60406  49482.000000  0     995410.080  17934000.749 -23534786.788
10 0 60406  50382.000000  0   -1018376.699  17180512.208 -24089423.863
10 0 60406  51282.000000  0   -3114359.115  16557303.530 -24344654.859
10 0 60406  52182.000000  0   -5257461.259  16077947.029 -24297308.252
10 0 60406  53082.000000  0   -7410826.752  15750114.041 -23947969.492
10 0 60406  53982.000000  0   -9536908.174  15575350.251 -23300973.925
10 0 60406  54882.000000  0  -11598578.960  15549045.476 -22364353.481
10 0 60406  55782.000000  0  -13560233.180  15660598.834 -21149737.730
10 0 60406  56682.000000  0  -15388838.989  15893774.143 -19672210.476
10 0 60406  57582.000000  0  -17054912.951  16227234.447 -17950123.569
10 0 60406  58482.000000  0  -18533384.881  16635238.984 -16004870.160
10 0 60406  59382.000000  0  -19804326.226  17088480.788 -13860620.101
10 0 60406  60282.000000  0  -20853519.264  17555038.727 -11544020.679
10 0 60406  61182.000000  0  -21672849.316  18001414.167  -9083866.324
10 0 60406  62082.000000  0  -22260507.719  18393619.747  -6510741.330
10 0 60406  62982.000000  0  -22620999.190  18698286.102  -3856639.986
10 0 60406  63882.000000  0  -22764953.364  18883751.769  -1154568.841
10 0 60406  64782.000000  0  -22708746.412  18921101.995   1561863.951
10 0 60406  65682.000000  0  -22473944.620  18785123.760   4258867.050
10 0 60406  66582.000000  0  -22086587.411  18455146.911   6902886.861
10 0 60406  67482.000000  0  -21576332.343  17915744.892   9461025.664
10 0 60406  68382.000000  0  -20975488.974  17157272.941  11901451.683
10 0 60406  69282.000000  0  -20317971.951  16176226.728  14193795.905
10 0 60406  70182.000000  0  -19638206.275  14975410.050  16309530.680
10 0 60406  71082.000000  0  -18970019.134  13563906.194  18222325.315
10 0 60406  71982.000000  0  -18345553.157  11956853.749  19908374.235
10 0 60406  72882.000000  0  -17794235.231  10175033.774  21346693.591
10 0 60406  73782.000000  0  -17341833.288   8244281.157  22519382.657
10 0 60406  74682.000000  0  -17009630.666   6194738.486  23411846.741
10 0 60406  75582.000000  0  -16813743.988   4059975.708  24012978.897
10 0 60406  76482.000000  0  -16764605.945   1876003.035  24315298.168
10 0 60406  77382.000000  0  -16866629.231   -319792.118  24315042.690
10 0 60406  78282.000000  0  -17118062.172  -2489750.986  24012216.493
10 0 60406  79182.000000  0  -17511040.584  -4597057.593  23410589.437
10 0 60406  80082.000000  0  -18031834.238  -6606826.423  22517650.278
10 0 60406  80982.000000  0  -18661280.225  -8487129.681  21344513.428
10 0 60406  81882.000000  0  -19375389.614 -10209932.097  19905780.559
10 0 60406  82782.000000  0  -20146108.404 -11751904.111  18219358.747
10 0 60406  83682.000000  0  -20942208.875 -13095088.079  16306237.384
10 0 60406  84582.000000  0  -21730283.373 -14227396.752  14190226.641
10 0 60406  85482.000000  0  -22475809.323 -15142928.512  11897660.702
10 0 60406  86382.000000  0  -23144252.025 -15842089.614   9457069.493
99